Regional Weather Roundup
Issued by NWS

Home | Current Version | Previous Version | Text Only | Print | Product List | Glossary On
Versions: 1 2 3 4 5 6 7 8 9 10 11 12 13 14 15 16 17 18 19 20 21 22 23 24 25 26 27 28 29 30 31 32 33 34 35 36 37 38 39 40 41 42 43 44 45 46 47 48 49 50
280
ASUS43 KDTX 121701
RWRMI
MICHIGAN HOURLY REGIONAL WEATHER ROUNDUP
NATIONAL WEATHER SERVICE DETROIT/PONTIAC MI
1200 PM EST FRI FEB 12 2016

NOTE: "FAIR" INDICATES FEW OR NO CLOUDS BELOW 12,000 FEET WITH NO
SIGNIFICANT WEATHER AND/OR OBSTRUCTION TO VISIBILITY.

MIZ047>049-052>055-059>063-066>070-074>076-081>083-121800-
SOUTHEAST LOWER MICHIGAN

CITY           SKY/WX    TMP DP  RH WIND       PRES   REMARKS
ADRIAN         CLOUDY    22  12  65 W17G23    30.02F WCI   8
ALMA           CLOUDY    22  12  65 W16G25    29.98S WCI   8
ANN ARBOR      LGT SNOW  21  14  74 W17G24    29.99F WCI   7
BAD AXE        FLURRIES  21   8  59 W15G25    29.93S WCI   7
CARO           CLOUDY    21  16  79 W13       29.94F VSB 1/2 WCI   9
DETROIT CITY   LGT SNOW  21  12  68 W13       29.99F WCI   9
DETROIT        FLURRIES  22  13  68 SW20G25   30.01F WCI   7
FLINT          CLOUDY    24  12  60 W13       29.96F WCI  12
GROSSE ILE     CLOUDY    23  12  63 SW10      30.00F WCI  12
HILLSDALE      LGT SNOW  20  12  73 W9        29.99F WCI   9
HOWELL         LGT SNOW  22  17  81 W13       29.96F WCI  10

CITY           SKY/WX    TMP DP  RH WIND       PRES   REMARKS
JACKSON        LGT SNOW  21  15  78 W15       29.98F WCI   8
LAMBERTVILLE   CLOUDY    22  12  63 W12G18    30.03F WCI  11
LANSING        SNOW      20  15  81 W13       29.99S VSB 1/2 WCI   7
LAPEER         CLOUDY    21  14  73 W12G17    29.95S WCI   9
MASON          LGT SNOW  21  17  83 W8        29.98F VSB 3/4 WCI  12
MONROE         CLOUDY    23  12  63 SW17      30.01F WCI   9
PONTIAC        LGT SNOW  20  14  77 SW14      29.94F WCI   7
PORT HOPE        N/A     21   7  54 W13G21    29.90F WCI   9
PORT HURON     CLOUDY    21  14  73 SW8       29.96F HAZE    WCI  12
TRI CITIES     CLOUDY    22   7  52 W16G22    29.96F WCI   8
MIDLAND        CLOUDY    20   9  62 W15       29.96S WCI   7
TROY           LGT SNOW  23  15  72 W10G18    29.99F WCI  12
SAGINAW HB     LGT SNOW  23  14  68 W21       29.96F WCI   8
$$
MIZ043>046-050>051-056>058-064>065-071>073-077>080-121800-
SOUTHWEST LOWER MICHIGAN

CITY           SKY/WX    TMP DP  RH WIND       PRES   REMARKS
BATTLE CREEK   LGT SNOW  21  16  81 W13       30.01S VSB 3/4 WCI   9
BENTON HARBOR  LGT SNOW  22  13  68 NW16G24   30.09S WCI   8
BIG RAPIDS     LGT SNOW  18   9  67 NW10G23   29.97S WCI   7
COLDWATER      LGT SNOW  21  15  77 W14G22    30.01F WCI   8
FREMONT        LGT SNOW  19  10  67 NW18      30.02S WCI   3
HOLLAND        LGT SNOW  20  12  71 NW16G26   30.06R VSB 1   WCI   6
GRAND RAPIDS   LGT SNOW  21  15  78 NW18G26   30.01S WCI   6
IONIA          FLURRIES  21  13  71 W14G20    29.98S WCI   8
KALAMAZOO      SNOW      22  16  78 NW12      30.03S VSB 1/2 WCI  10
LUDINGTON      LGT SNOW  17   8  66 N9G28     30.04S WCI   6
MARSHALL       LGT SNOW  22  17  83 SW12      29.99F WCI  10
MOUNT PLEASANT PTSUNNY   22   5  48 NW15G21   29.96S WCI   9
MUSKEGON       LGT SNOW  19   9  65 NW17      30.06R WCI   4
SOUTH HAVEN    LGT SNOW  22  14  70 NW13G23   30.07S WCI  10
$$
MIZ016>042-121800-
NORTHERN LOWER MICHIGAN

CITY           SKY/WX    TMP DP  RH WIND       PRES   REMARKS
ALPENA         PTSUNNY   19   6  57 W12G21    29.88S WCI   7
BEAVER ISLAND  LGT SNOW  14   9  78 N12G20    29.97R VSB 3/4 WCI   1
BELLAIRE       SNOW      17  12  82 NW12G20   29.96R VSB 1/2 WCI   4
CADILLAC       LGT SNOW  16  10  78 NW13G18   29.92S VSB 3/4 WCI   2
CHARLEVOIX     CLOUDY    18   6  59 NW18G31   29.97R WCI   2
FRANKFORT      LGT SNOW  17   8  67 NW14G21   30.01S WCI   3
GRAYLING       SNOW      15  10  81 W16       29.90S VSB 1/2 WCI   0
HARBOR SPRINGS LGT SNOW  17   6  62 W16G24    29.91S WCI   2
HOUGHTON LAKE  LGT SNOW  16   6  65 NW17      29.91S WCI   0
MANISTEE       CLOUDY    18   3  53 NW16      30.02S WCI   3
OSCODA         LGT SNOW  18  12  78 W9        29.90S WCI   7
PELLSTON       LGT SNOW  14   9  80 N15G26    29.92R VSB 1   WCI  -1
ROGERS CITY    SNOW      16  11  82 NW14      29.89R VSB 1/2 WCI   1
TRAVERSE CITY  LGT SNOW  17  10  74 NW13      29.98R WCI   4
$$
MIZ007>008-015-121800-
EASTERN UPPER MICHIGAN

CITY           SKY/WX    TMP DP  RH WIND       PRES   REMARKS
KINROSS        CLOUDY    10   3  72 N21       29.92R WCI  -9
MACKINAC ISLAN PTSUNNY   14   3  61 N12G18    29.92R WCI   1
NEWBERRY       LGT SNOW   8   3  79 N13G25    29.97R VSB 1   WCI  -7
S. S. MARIE    PTSUNNY   10  -5  50 N13G22    29.94R WCI  -5
$$
MIZ004>006-011>014-085-121800-
CENTRAL UPPER MICHIGAN

CITY           SKY/WX    TMP DP  RH WIND       PRES   REMARKS
MANISTIQUE     SNOW      11   5  75 N20G33    30.01R VSB 1/2 WCI  -7
ESCANABA       PTSUNNY   16  -6  38 NW18G28   30.05R WCI  -1
MENOMINEE      PTSUNNY   16  -4  41 NW20G28   30.07R WCI  -1
SAWYER-GWINN   SNOW       5   0  78 N24G30    30.03R VSB 1/2 WCI -17
$$
MIZ001>003-009>011-084-121800-
WESTERN UPPER MICHIGAN

CITY           SKY/WX    TMP DP  RH WIND       PRES   REMARKS
IRON MOUNTAIN  PTSUNNY   10  -5  50 NW20G36   30.04R HAZE    WCI  -9
HOUGHTON       HAZE      -1  -7  75 N20G31    30.14R VSB 1/4 WCI -23
COPPER HARBOR    N/A      1  -2  87 NE28G39   30.18R WCI -24
IRONWOOD       CLOUDY     1  -2  85 NW20G25   30.19R VSB 1/2 WCI -20
$$

ABBREVIATIONS USED IN REMARKS
   TC - TEMPERATURE IN CELSIUS
  WCI - WIND CHILL INDEX
   HX - HEAT INDEX
  VSB - VISIBILITY





USA.gov is the U.S. government's official web portal to all federal, state and local government web resources and services.